Theta_e
321 323 322 323 325 323 323 327 328 328 330 331 331 331 332 332 334 333 332 334 334 334 336 336 338 337 335 334 334 334 335 335 334 336 339 339 340 340 339 339 340 338 336 338 341 342 344 344 341 338 338 339 340 340 340 339 340 340 339 338 338 337 336
320 321 322 322 323 323 323 326 327 326 328 331 332 331 331 330 331 331 331 332 333 335 335 335 336 336 335 336 336 335 333 332 333 335 337 338 339 339 337 338 341 340 339 340 339 338 341 343 343 342 340 340 340 340 338 338 340 340 339 339 338 337 337
319 320 321 322 322 323 323 324 326 327 327 329 332 332 331 331 330 330 331 331 332 335 336 337 337 336 336 336 336 335 333 332 332 333 335 336 338 339 337 339 342 341 340 340 338 337 338 340 342 342 341 341 341 340 338 339 340 340 340 339 339 338 338
319 320 321 321 321 322 323 323 325 327 329 329 331 332 332 332 331 331 333 331 332 335 336 336 336 335 335 336 334 333 333 332 332 332 333 335 337 339 339 340 342 342 341 339 337 336 337 338 339 340 340 341 342 342 341 339 339 340 340 340 339 339 338
318 319 320 321 321 321 322 323 324 325 328 329 330 331 331 331 331 332 333 332 332 336 336 334 335 334 332 333 332 330 330 330 332 333 333 334 336 338 340 341 342 342 340 338 336 335 335 335 338 339 340 341 343 343 342 341 340 340 341 341 340 339 338
317 318 319 319 320 321 321 321 323 324 325 327 328 330 330 330 331 332 333 332 334 336 336 334 335 334 332 332 330 328 328 329 331 334 334 335 336 336 338 341 341 339 339 339 337 335 334 334 335 337 338 341 343 342 341 341 341 342 341 341 341 340 339
316 317 318 319 319 320 320 320 322 323 323 324 326 327 329 330 330 331 332 332 333 335 336 335 335 334 332 331 330 327 327 328 331 334 335 335 335 335 336 339 338 337 339 340 338 336 334 333 333 334 336 339 341 340 339 338 339 342 342 341 341 341 340
316 316 317 318 318 319 319 319 320 322 322 324 324 325 326 328 328 329 331 332 332 333 335 335 333 332 331 331 331 329 328 329 330 331 333 334 335 335 335 337 335 336 338 338 337 337 336 333 332 332 334 339 341 340 338 338 339 341 342 341 340 341 340
315 316 316 316 317 317 318 319 319 320 322 322 323 323 324 325 327 327 328 331 332 333 334 334 332 331 331 330 331 332 332 332 332 331 331 331 333 334 334 335 335 336 335 335 334 335 336 335 333 332 333 337 340 341 340 340 340 341 341 341 340 339 339
315 315 315 316 316 317 317 318 318 319 321 321 321 322 323 323 324 325 327 329 331 332 334 335 333 331 331 331 332 333 333 331 332 332 332 330 332 334 334 333 334 335 334 335 333 333 335 334 334 333 332 333 336 341 342 341 341 339 339 340 338 337 338
314 315 315 315 316 316 317 317 318 318 319 320 320 321 321 322 322 323 325 327 329 330 330 331 331 328 327 328 328 329 331 331 330 330 330 331 333 335 334 333 333 335 335 335 335 335 334 333 334 334 333 332 334 338 339 341 341 337 335 337 335 334 335
314 314 315 315 315 316 316 317 317 317 318 318 319 319 320 321 322 322 322 323 326 328 327 328 330 327 324 324 323 324 327 329 329 327 327 329 332 333 335 334 333 335 335 336 337 339 337 335 336 336 335 335 335 336 336 338 341 338 333 334 333 332 333
314 315 315 315 315 316 316 316 317 317 317 317 318 319 320 319 320 321 321 320 322 324 326 327 329 327 325 323 322 322 323 324 326 326 326 326 327 330 333 334 334 335 335 336 338 340 339 335 334 333 334 336 336 336 335 336 340 339 334 333 333 332 332
314 315 315 316 316 316 316 316 317 317 317 317 317 318 320 319 319 320 321 321 320 321 323 326 328 328 327 326 324 323 323 323 323 323 323 323 325 329 331 333 334 334 335 335 337 341 340 335 333 333 333 335 336 336 336 336 338 337 334 333 332 332 332
315 315 316 317 317 317 317 317 317 317 317 318 317 317 318 319 319 318 320 321 321 320 320 322 325 328 329 329 326 324 323 323 322 321 320 323 327 329 330 332 333 332 334 335 335 339 340 336 336 335 334 335 337 337 337 337 337 337 336 335 333 333 331
315 315 316 317 317 318 318 318 318 318 318 318 318 318 318 319 319 318 317 319 321 321 320 320 321 324 327 328 328 325 323 322 322 321 320 323 325 325 328 331 332 331 332 333 333 335 335 334 334 334 334 336 337 337 336 336 336 337 337 336 335 334 333
314 315 316 317 317 317 318 318 319 319 319 319 319 319 319 319 319 318 318 318 319 321 321 320 320 321 324 326 328 327 326 325 324 323 322 322 322 323 327 330 331 330 330 331 333 334 333 333 334 334 334 335 335 335 334 334 334 335 336 337 336 335 334
314 315 315 316 317 317 318 318 318 319 319 319 320 320 320 320 320 320 319 318 318 319 320 320 321 321 321 322 324 326 327 328 327 325 324 322 322 325 328 329 329 331 332 332 333 333 333 334 334 335 334 334 333 333 332 333 332 332 334 335 334 334 334
314 315 315 316 316 317 318 318 318 318 318 319 319 319 319 320 320 320 320 320 319 319 319 319 320 321 321 319 320 322 324 326 327 327 327 325 323 324 328 329 328 330 334 334 333 333 333 333 333 333 333 333 333 332 333 333 332 331 333 334 334 333 333
314 314 315 316 316 316 317 317 317 317 318 318 318 318 318 319 319 320 320 320 320 320 320 319 319 321 321 321 320 319 320 323 326 326 326 326 324 325 328 329 328 328 332 335 333 332 332 332 332 333 332 333 334 334 333 333 333 332 332 333 333 333 333
313 314 315 315 315 315 315 316 316 317 317 317 317 317 317 318 318 319 320 321 321 320 320 319 319 320 321 321 321 320 320 322 324 324 325 325 325 326 326 328 328 328 331 333 332 331 332 332 332 332 332 333 334 335 335 334 334 334 333 333 333 333 332
313 314 315 315 314 314 315 315 316 316 317 316 316 316 316 317 318 319 320 320 320 320 319 318 318 318 319 320 321 322 323 324 324 324 325 326 326 327 326 327 329 329 330 331 330 329 330 330 331 331 332 333 334 335 335 334 334 334 333 332 332 333 333
313 313 314 314 313 314 314 315 315 315 316 315 315 315 315 316 317 318 319 319 319 318 317 316 316 317 318 318 319 319 320 321 322 323 324 325 326 326 326 326 327 327 327 327 327 327 327 327 328 329 330 331 332 333 334 334 334 334 333 333 333 333 333
312 313 313 313 313 314 314 314 314 314 315 315 314 314 314 315 316 316 316 316 316 315 315 314 315 316 316 317 317 318 318 318 319 321 322 324 324 324 325 325 325 325 325 326 326 327 327 327 327 327 328 329 329 329 330 331 333 334 334 334 334 334 335
312 312 312 312 312 313 313 313 313 313 314 314 314 314 313 314 314 313 313 313 313 313 313 313 314 314 315 316 316 317 317 317 317 319 321 322 322 322 323 324 324 324 324 325 325 325 324 325 326 326 327 327 326 325 325 326 328 329 331 333 334 335 335
311 311 312 312 312 313 312 312 313 313 313 314 313 313 313 313 313 312 311 311 311 311 311 312 313 314 315 315 316 316 316 316 317 318 320 320 320 320 321 322 323 324 324 325 325 325 324 324 324 324 325 326 326 326 326 325 325 325 325 327 331 333 333
310 311 311 311 312 312 312 312 312 312 313 313 313 313 312 312 312 312 311 310 310 310 310 310 311 312 314 315 315 316 316 316 317 318 319 320 320 320 320 321 322 323 323 324 324 324 325 325 326 326 326 326 327 327 328 328 327 326 325 324 325 326 327
310 310 310 311 311 311 312 312 312 312 312 312 313 313 312 312 311 311 311 310 310 309 309 308 309 310 312 313 315 316 316 317 319 320 320 320 320 321 321 321 322 322 322 322 321 321 322 323 324 325 325 325 325 325 326 327 327 329 329 328 327 326 326
309 309 310 310 310 310 311 311 311 312 312 312 312 312 312 312 311 311 311 310 309 308 308 307 307 308 310 311 312 315 316 317 318 320 321 321 321 322 322 322 322 322 321 321 320 320 320 320 321 323 323 323 323 323 323 323 323 325 327 328 327 327 327
309 309 309 309 309 309 309 310 310 311 312 312 312 311 312 312 311 310 310 310 309 309 308 307 306 306 308 309 311 313 315 316 317 319 319 320 321 322 321 322 322 321 320 320 320 320 320 320 320 320 322 323 323 323 323 323 323 323 324 324 325 325 325
309 309 309 309 309 309 309 309 309 310 311 311 311 311 311 311 311 310 309 309 309 308 308 307 306 305 306 308 310 312 313 314 315 316 317 317 318 319 319 319 318 317 317 317 317 318 319 318 317 317 318 319 320 321 322 323 322 323 323 323 324 324 324
309 309 308 308 308 308 308 308 309 309 310 311 310 310 311 311 311 310 309 309 309 308 308 307 305 304 305 307 309 310 311 311 312 313 313 314 316 317 317 316 315 314 314 314 314 315 315 315 315 315 314 315 316 318 319 320 320 320 320 320 321 321 321
309 308 308 307 307 308 308 308 308 309 309 310 310 310 310 311 311 310 310 309 309 309 308 307 305 303 304 306 307 308 308 308 308 309 310 312 314 315 316 315 314 313 313 313 313 313 314 314 314 313 313 313 314 315 316 316 316 315 315 316 316 318 319
308 308 307 307 307 307 308 308 308 308 309 309 310 310 310 310 310 310 310 309 309 309 308 306 304 303 303 304 305 306 306 306 306 307 309 311 313 313 313 312 312 312 312 313 313 314 314 314 313 313 313 313 313 313 313 313 313 313 312 313 314 315 317
308 307 307 307 307 307 307 308 308 308 308 309 309 309 309 309 310 310 309 309 310 309 307 305 304 303 303 303 304 304 304 305 305 306 308 310 311 311 310 310 311 311 312 312 313 313 313 313 314 314 314 314 314 314 314 313 313 312 312 313 314 315 315
307 307 306 307 307 307 307 307 308 308 308 309 309 309 309 309 310 309 309 309 310 309 307 306 304 303 303 303 303 304 305 305 305 306 308 309 310 310 310 311 311 311 311 311 311 311 311 311 312 312 312 312 313 314 314 313 313 312 313 313 314 315 315
306 306 306 306 306 306 306 306 307 307 308 308 308 308 309 309 309 309 309 309 310 309 308 307 305 303 303 303 303 304 305 305 306 307 308 309 309 309 309 310 310 310 310 309 309 308 308 308 308 308 309 310 311 312 312 312 312 312 313 314 315 315 316
Wind_Speed
16 16 18 18 19 24 24 21 18 16 9 12 15 19 26 23 19 18 16 16 18 20 21 20 17 14 14 16 17 16 15 15 16 16 14 19 21 18 16 11 3 6 11 9 9 8 3 2 3 5 7 10 12 13 13 12 13 14 14 15 16 16 15
16 17 18 17 19 22 23 24 20 16 10 7 11 15 22 19 16 16 14 14 15 18 20 18 18 19 16 12 10 8 8 11 17 18 13 13 18 19 16 12 6 8 8 7 11 9 4 3 3 2 6 8 11 15 15 13 14 16 16 16 15 15 15
17 18 18 17 19 21 22 26 23 16 11 6 7 12 17 15 14 17 16 14 15 17 17 15 15 17 17 15 10 6 5 8 12 15 17 17 17 16 16 15 11 11 8 5 9 9 4 3 2 3 7 8 7 12 16 16 16 18 17 17 16 16 16
17 17 18 18 19 20 20 24 24 20 13 5 6 8 11 12 12 16 17 16 15 16 15 14 15 15 15 15 14 7 5 6 6 10 19 23 20 16 14 15 14 14 12 8 11 12 8 4 3 3 7 12 10 11 16 19 18 18 18 18 19 19 18
17 16 17 17 16 18 19 21 22 22 17 6 3 6 8 9 10 13 16 17 15 14 15 15 14 15 15 14 14 10 5 3 2 5 15 21 22 19 15 15 16 15 14 12 15 17 14 11 8 4 5 10 10 8 12 16 17 18 19 20 21 20 18
17 16 16 16 15 16 18 19 20 21 20 15 6 1 5 7 9 10 12 14 14 12 14 14 12 13 14 11 10 10 6 5 4 2 10 17 20 20 18 17 16 16 16 13 13 17 17 15 11 5 5 8 9 7 10 14 15 16 18 21 21 20 20
16 16 16 16 15 16 16 17 17 17 19 18 14 7 1 4 8 7 8 12 15 13 12 13 12 11 10 9 8 8 6 5 3 2 5 13 17 19 20 19 18 20 19 14 12 14 16 16 14 10 6 6 7 7 8 12 14 14 16 20 22 22 22
15 15 15 15 15 16 16 15 15 15 15 16 15 12 7 2 4 6 6 9 12 13 12 11 11 10 8 7 5 5 6 7 7 6 5 7 14 19 20 22 24 24 21 17 15 13 13 13 13 13 9 5 4 4 5 8 11 14 17 19 22 24 24
15 15 15 15 15 16 16 15 14 13 13 13 13 13 10 6 4 4 2 5 7 8 9 8 9 9 8 7 4 3 5 6 6 6 5 5 13 20 20 21 24 25 20 18 17 14 13 12 10 11 11 9 5 3 3 5 7 12 17 17 19 23 24
15 15 16 16 15 15 15 14 14 12 11 11 11 11 11 9 7 5 3 2 2 4 6 6 6 8 7 5 4 3 3 4 4 4 4 5 12 19 21 22 21 20 19 17 15 13 14 14 13 12 12 17 16 6 3 3 5 9 15 18 19 22 25
14 14 14 15 15 14 14 14 14 12 10 10 10 9 9 10 9 7 5 3 3 1 3 3 2 5 8 6 2 1 1 2 3 3 2 4 10 17 21 23 23 17 16 16 14 13 13 13 13 13 14 22 24 13 4 3 5 7 11 17 20 21 23
13 13 13 13 13 13 14 13 14 13 11 11 10 9 8 8 9 9 7 4 4 4 1 1 2 1 4 6 4 2 3 2 4 5 3 4 10 15 20 25 25 20 16 15 14 14 15 13 13 14 15 18 19 14 10 6 3 5 8 11 14 14 16
14 13 13 13 12 12 12 12 13 13 13 11 10 9 8 8 8 8 9 8 5 3 2 1 2 3 2 3 3 2 4 4 4 5 5 5 11 16 20 27 28 22 18 16 16 16 17 16 16 17 16 16 15 14 15 11 5 6 11 12 10 8 9
14 14 13 13 12 11 11 11 11 12 12 12 11 10 9 8 8 8 9 11 9 5 3 2 1 3 5 3 3 3 5 6 5 5 5 7 11 13 17 27 30 24 19 19 17 17 20 20 19 20 19 18 17 16 16 15 10 8 13 16 15 13 12
13 14 14 13 12 11 10 10 10 10 10 11 11 11 10 10 10 9 10 11 9 6 5 4 2 2 3 4 4 5 7 8 8 7 6 8 10 11 12 20 25 20 17 19 17 16 17 17 17 19 19 19 20 19 17 16 14 11 12 16 16 17 17
13 14 14 13 12 12 11 10 9 9 9 10 10 10 11 11 11 11 11 10 8 6 5 5 4 4 3 3 5 7 9 10 9 8 9 9 11 14 13 12 16 15 16 18 17 16 15 15 15 15 15 15 16 18 18 18 17 14 13 14 15 16 16
12 14 14 14 14 13 12 10 9 9 8 9 9 10 11 11 10 10 10 11 10 8 5 4 5 6 4 3 3 4 6 9 9 9 12 13 13 14 14 13 14 16 17 16 12 10 11 11 11 13 13 12 13 16 17 17 16 14 11 10 11 12 12
13 14 14 15 15 13 12 11 9 8 8 8 9 10 11 11 10 11 11 11 12 11 7 4 5 6 6 5 4 4 3 5 7 9 12 14 14 14 13 15 17 14 11 10 8 7 7 8 9 12 14 13 13 14 16 16 17 17 12 8 11 13 13
14 14 14 15 16 14 12 12 11 9 8 8 9 10 11 11 10 11 11 11 11 11 8 5 6 7 8 8 6 6 5 4 6 7 9 12 14 14 12 14 18 15 7 7 8 7 8 9 10 13 13 12 12 12 12 12 16 19 15 10 11 14 14
14 14 13 14 16 14 13 12 12 11 11 10 10 11 11 11 11 11 11 11 10 11 9 5 4 4 6 8 8 7 8 8 8 7 8 11 13 13 11 12 16 16 8 5 7 8 8 9 11 12 11 10 10 10 11 13 15 17 15 11 11 12 13
13 12 13 13 14 13 12 12 12 12 12 12 11 11 11 11 11 11 10 10 10 9 7 5 3 3 3 4 5 6 8 9 9 9 10 11 11 11 11 11 14 14 9 5 7 7 8 9 11 12 11 9 6 6 9 12 14 14 12 12 13 11 10
13 13 13 12 12 13 13 13 13 13 12 12 12 12 11 11 12 13 12 11 9 6 4 5 5 6 6 5 4 3 5 7 8 10 10 10 9 9 10 11 12 12 8 6 7 7 7 8 9 10 10 9 7 6 6 8 10 11 10 11 12 10 9
12 12 12 11 12 14 13 12 13 12 11 11 11 12 12 11 11 13 12 8 3 3 4 6 6 6 7 7 6 5 5 5 6 7 8 10 10 8 8 10 11 11 9 9 10 8 7 8 9 11 10 10 11 9 8 7 8 9 11 12 11 9 9
12 12 11 11 12 12 11 11 12 11 11 11 11 12 11 11 12 13 12 8 6 7 8 8 8 7 6 7 8 7 7 7 7 7 7 7 9 9 9 11 12 12 10 9 8 7 6 8 9 10 11 11 12 12 12 12 12 11 11 12 11 10 10
10 10 10 10 11 10 10 11 11 10 10 10 10 11 11 11 11 12 12 11 10 11 11 10 9 9 8 7 7 7 7 7 8 9 8 7 7 7 8 10 12 12 11 11 10 9 9 9 9 9 9 9 11 13 15 16 16 16 16 14 13 13 14
9 9 9 9 9 9 10 10 10 9 9 9 9 9 10 10 11 11 12 12 12 12 12 11 11 10 10 9 9 9 8 7 7 9 10 8 7 7 9 10 11 10 10 11 12 10 8 9 11 11 10 10 12 14 15 16 17 18 18 18 17 18 19
9 8 9 9 9 10 9 8 8 9 9 9 9 9 9 10 10 10 11 12 12 13 14 14 13 12 11 11 11 10 9 7 5 7 8 8 8 9 11 11 11 11 8 4 3 4 5 6 8 9 8 9 11 12 13 14 15 16 18 19 21 23 24
10 9 9 9 10 9 9 8 8 7 7 7 8 8 8 9 10 10 10 11 12 14 16 16 16 15 14 13 12 10 7 6 6 6 6 7 7 8 10 10 10 9 5 3 4 4 3 4 5 6 6 8 10 12 13 14 14 15 17 18 20 22 22
10 9 9 9 9 9 10 10 8 7 6 6 7 7 7 8 9 9 10 10 10 14 17 18 19 18 15 13 11 7 4 6 7 7 5 5 7 8 9 10 9 6 4 4 6 7 7 6 4 4 6 8 11 13 15 15 15 15 15 16 18 19 20
8 9 9 9 9 10 10 10 9 9 7 5 7 7 6 6 8 8 9 9 9 12 16 18 20 20 16 12 8 4 4 8 9 7 7 5 4 4 5 6 6 5 5 6 7 7 8 8 8 8 8 9 10 12 13 14 14 12 11 10 11 14 17
7 8 8 8 9 10 9 9 9 10 8 6 7 7 6 6 7 7 8 9 8 10 13 15 19 21 18 13 9 6 8 11 10 8 8 8 6 5 5 5 6 7 7 6 6 7 8 9 9 9 9 10 12 12 13 13 14 15 15 13 11 11 12
8 8 8 8 7 8 8 7 7 8 7 6 7 7 6 5 6 6 7 7 8 8 10 13 17 20 18 14 10 8 10 11 9 8 8 9 9 7 5 6 9 11 11 10 9 9 9 9 9 9 10 10 10 11 12 14 16 19 21 21 20 19 18
7 7 7 7 7 7 7 7 7 7 6 6 5 5 5 4 4 5 4 5 7 6 7 11 15 17 17 15 11 9 9 10 9 9 9 9 9 9 9 9 12 13 13 13 12 12 11 11 11 10 9 8 7 10 13 16 18 20 22 24 23 22 21
5 4 4 6 6 6 6 6 6 6 5 5 4 3 4 4 4 4 3 3 4 3 5 11 15 15 14 15 13 10 10 10 9 8 9 10 10 11 12 13 15 15 13 13 12 11 11 10 9 9 9 8 10 14 16 17 18 18 19 21 21 20 19
2 3 5 5 5 6 5 4 6 6 4 3 3 3 3 3 3 4 3 2 3 3 6 12 16 15 14 14 15 14 13 12 10 8 9 10 11 12 13 13 14 13 12 11 11 10 10 9 8 8 9 10 12 14 15 15 16 15 14 14 14 15 16
1 2 4 5 6 7 7 6 5 5 3 2 2 4 4 4 4 4 3 4 5 5 8 13 16 17 14 14 15 14 13 13 12 10 9 9 9 11 11 12 12 12 12 13 14 15 15 14 13 12 11 11 11 11 10 10 12 12 12 12 13 13 13
6 4 4 6 7 8 9 10 9 7 5 5 5 5 6 5 5 5 6 6 7 7 8 11 15 16 14 12 13 13 11 11 11 10 9 8 8 9 10 11 13 13 14 15 16 17 18 18 16 15 15 14 11 10 10 8 9 10 10 10 11 11 11
Wind_Direction
338 341 346 346 350 354 354 349 337 329 302 233 231 221 207 211 218 219 222 223 223 221 216 215 216 212 202 192 189 201 210 219 247 257 225 193 189 199 200 195 183 149 161 169 165 153 132 149 197 220 209 196 208 222 220 210 202 203 205 203 208 207 204
337 340 343 347 353 357 358 357 350 339 320 240 211 205 209 218 222 223 226 224 226 221 214 215 223 228 224 207 184 188 212 227 240 248 244 218 203 200 198 198 180 154 157 163 164 156 123 134 145 182 198 200 223 229 223 218 212 209 207 208 215 214 210
339 339 341 348 356 358 359 359 357 352 337 281 208 196 208 218 226 229 225 223 226 219 213 212 219 226 228 228 223 202 201 217 225 227 230 234 227 212 202 200 183 166 170 164 162 160 133 137 158 184 186 184 215 232 226 223 218 212 208 209 215 214 214
340 340 341 348 356 0 360 359 360 2 355 304 215 199 204 208 220 225 217 214 219 218 217 220 223 225 225 228 231 220 191 194 203 215 222 227 227 222 215 209 195 184 189 186 178 177 165 162 178 185 194 196 209 222 220 223 221 213 209 210 215 215 217
339 339 340 345 354 0 360 358 0 6 10 8 214 206 203 201 205 212 212 209 209 215 219 220 223 223 224 228 231 232 234 248 254 213 218 223 222 222 224 220 210 205 208 200 194 194 187 182 184 189 201 201 211 218 211 214 217 216 213 213 216 217 218
338 339 340 342 349 356 357 357 359 4 10 16 20 203 208 209 201 203 216 211 201 208 211 210 211 214 218 222 229 234 239 269 298 232 220 223 224 228 232 231 224 219 222 212 202 206 201 188 185 208 226 205 207 210 203 206 212 217 219 219 218 216 218
337 339 339 341 346 349 351 354 356 360 2 8 18 27 2 231 214 208 219 211 205 205 199 200 205 204 207 208 220 232 232 248 253 165 207 223 233 238 233 234 232 221 215 203 193 200 203 201 198 200 215 227 222 208 203 211 214 214 218 222 219 215 218
335 337 339 340 344 343 343 347 350 355 356 359 9 15 21 16 248 240 222 200 200 200 188 193 205 199 198 197 204 221 217 229 222 188 172 208 240 247 237 235 233 222 214 204 197 193 195 211 214 204 207 235 234 205 207 215 216 219 219 218 218 217 219
335 334 337 337 340 340 338 340 342 348 352 353 358 1 8 15 344 305 251 176 183 191 176 176 188 189 198 205 201 193 185 197 206 192 176 211 247 249 247 248 236 221 218 216 212 206 195 202 216 216 228 248 243 191 206 219 214 225 224 216 215 217 217
335 333 335 332 333 336 334 334 333 338 347 349 351 354 356 351 341 343 2 62 165 191 164 140 149 159 162 180 205 212 182 179 179 157 158 225 250 243 246 262 251 224 218 220 218 217 207 202 205 209 230 251 254 237 190 219 218 223 224 215 212 216 216
332 330 330 329 331 332 331 331 328 328 335 338 338 343 351 350 340 337 345 5 4 302 165 128 94 144 142 130 109 336 281 210 207 194 185 258 266 250 242 257 261 236 215 215 218 224 222 211 210 211 218 237 247 251 248 245 225 226 228 218 215 218 216
329 328 327 328 328 326 326 325 326 325 324 327 329 326 331 339 337 332 327 322 341 355 37 194 305 230 156 141 113 16 342 308 235 229 254 321 309 279 250 246 251 237 214 211 218 229 228 219 222 228 226 233 245 257 266 273 249 242 248 232 229 229 212
331 328 326 326 323 321 321 320 322 325 323 322 321 315 313 321 327 325 323 320 315 321 330 276 275 292 275 182 175 270 316 311 263 238 251 307 324 304 270 251 244 233 220 217 221 231 234 230 234 238 239 243 250 258 260 261 254 250 254 250 255 259 227
331 330 328 327 322 318 316 316 317 319 320 318 314 308 300 301 315 314 309 316 316 301 284 286 297 284 286 272 217 240 283 284 264 244 259 295 312 311 282 255 243 234 227 224 225 232 234 234 237 238 240 242 245 253 257 254 250 254 257 255 258 259 252
334 335 332 329 325 319 316 315 314 313 315 316 314 312 303 293 299 306 304 305 309 308 294 283 279 256 264 275 255 247 265 276 272 255 267 300 307 316 298 257 242 237 232 231 235 237 234 235 236 237 239 240 242 247 251 252 248 244 250 252 255 257 255
339 339 335 331 328 326 324 321 319 316 315 318 317 315 315 307 298 299 304 299 290 296 308 298 278 259 242 261 273 274 272 276 282 270 267 284 293 305 308 268 241 238 235 235 241 245 245 247 249 250 252 254 257 257 258 262 260 253 250 248 245 248 248
343 343 338 334 333 334 333 330 329 328 322 324 325 321 323 322 312 306 303 298 290 287 304 324 295 269 255 242 252 289 290 278 278 273 266 271 278 289 296 279 252 239 233 237 244 250 253 254 259 266 269 279 294 295 296 297 291 281 281 284 272 262 263
343 343 337 337 341 342 341 339 338 340 338 337 335 332 331 327 325 320 307 298 293 285 282 299 295 272 261 257 244 247 277 275 269 267 264 265 270 274 281 281 269 251 235 245 260 273 274 262 260 264 266 275 288 296 305 311 302 286 277 288 291 284 292
343 342 338 341 347 348 347 347 349 349 352 354 350 348 345 339 334 326 314 307 299 292 286 277 279 277 271 273 265 246 248 259 262 259 253 253 261 267 275 281 278 270 253 251 265 283 285 271 266 267 267 271 273 276 281 287 291 285 270 257 263 263 268
341 340 339 343 348 352 352 353 357 357 358 2 0 357 351 343 337 331 322 317 313 314 318 305 284 290 283 282 280 261 249 248 252 251 247 247 251 259 272 282 279 274 267 261 265 269 273 275 279 281 279 281 282 276 268 264 270 277 273 265 265 265 264
341 339 338 342 349 355 357 358 1 2 4 6 4 360 353 345 340 336 328 320 318 322 330 330 322 326 326 312 298 274 254 249 255 255 250 249 245 246 259 270 273 272 270 270 268 263 269 280 286 284 277 279 291 280 261 258 260 267 271 267 263 266 272
340 337 340 346 354 360 0 3 6 8 11 11 7 0 356 354 347 339 333 326 321 321 330 344 340 328 329 341 350 322 275 263 266 264 258 255 249 244 249 253 260 267 269 275 278 276 279 281 283 281 270 262 268 267 257 259 263 269 271 263 259 259 260
340 342 347 351 0 2 1 7 12 14 19 16 10 5 360 359 358 355 352 346 341 1 4 7 3 342 325 321 325 326 309 292 280 275 272 264 255 249 248 250 256 261 264 275 280 280 287 288 283 281 273 264 263 262 263 265 265 270 269 261 260 258 252
344 349 352 355 0 360 1 11 13 11 16 18 15 11 9 11 18 27 36 44 49 36 21 15 6 350 337 321 308 302 302 300 290 288 292 281 265 256 252 256 261 259 259 266 270 274 290 296 294 289 279 272 267 260 260 258 253 257 261 258 257 253 248
344 349 352 354 354 356 6 14 11 7 12 19 19 16 17 24 28 33 41 43 37 29 17 7 359 349 343 336 322 312 306 300 289 285 293 303 296 280 273 272 268 258 252 253 257 267 275 274 280 289 287 281 276 271 266 261 255 254 254 256 259 255 251
343 347 348 349 351 4 15 14 12 9 10 20 27 24 25 32 32 28 30 33 30 22 10 360 353 345 338 332 326 321 315 306 287 274 279 297 312 311 313 312 300 282 267 255 252 260 268 261 260 269 275 278 279 279 276 270 266 262 259 257 257 257 258
352 350 352 359 4 13 18 19 19 12 10 22 30 32 33 33 33 28 23 26 27 21 13 4 355 346 339 332 326 320 319 319 301 274 272 288 307 314 315 317 318 316 312 294 263 261 262 254 251 256 266 275 281 285 287 284 279 275 269 262 257 259 263
354 352 360 7 10 13 15 22 28 15 13 27 28 32 42 39 36 33 21 19 23 19 14 9 1 350 337 329 324 320 329 339 324 295 276 277 292 307 305 300 305 312 319 2 22 2 326 284 263 261 270 281 288 290 292 296 296 289 282 275 272 273 275
355 356 7 9 8 10 9 13 18 7 9 36 36 31 41 43 40 38 29 23 19 14 12 12 8 358 342 330 324 319 343 354 335 324 317 285 276 290 298 297 306 324 347 356 351 346 342 340 335 317 300 294 294 293 292 296 300 300 296 292 290 290 289
3 358 4 5 1 2 5 6 1 351 357 36 44 30 32 46 44 35 31 28 18 9 8 8 9 7 359 351 345 349 19 6 352 356 3 336 294 298 318 317 323 346 1 350 332 324 328 339 346 343 331 316 304 302 303 301 297 297 299 301 301 298 295
6 0 2 3 357 356 2 2 351 345 351 27 40 26 20 42 47 35 30 29 20 8 1 358 3 8 8 5 10 33 29 12 9 25 26 15 19 34 30 22 23 20 12 356 331 315 315 323 329 326 321 314 307 304 306 304 297 290 287 289 294 296 299
5 8 8 4 2 359 357 359 354 347 351 21 38 22 9 28 45 41 36 30 23 12 356 352 1 8 12 10 13 27 27 15 12 20 21 19 26 36 35 32 31 23 10 358 343 328 321 321 325 323 316 312 306 298 294 294 297 297 294 292 293 295 299
10 13 10 5 10 9 1 5 6 354 357 23 41 24 8 18 47 58 53 25 17 11 357 360 6 10 13 14 12 14 15 9 6 9 13 9 8 22 34 22 9 5 359 350 340 333 328 322 320 323 325 321 302 288 287 289 294 298 298 297 298 301 305
1 359 13 19 21 17 14 21 21 11 13 30 39 35 23 21 44 62 51 14 17 21 15 19 18 18 22 23 23 27 20 14 18 23 22 12 3 16 25 12 359 358 356 347 340 338 335 327 322 323 322 312 295 288 291 296 301 306 305 301 297 296 299
338 348 5 21 35 28 20 37 45 32 23 39 68 76 61 52 64 60 29 27 85 88 47 36 29 27 32 33 34 39 37 34 41 42 29 18 8 9 11 6 2 3 2 2 8 14 12 6 358 347 332 320 310 303 298 299 308 316 318 315 310 303 300
35 54 19 12 39 37 12 14 50 53 26 20 94 124 115 94 81 73 56 76 99 85 52 43 31 24 29 35 37 41 43 45 52 55 48 38 27 21 19 17 14 14 21 32 38 37 34 28 22 15 3 350 341 334 326 320 323 326 322 317 313 308 306
14 25 33 28 41 40 17 7 14 23 23 17 25 66 88 85 76 71 68 85 102 91 60 40 24 17 22 31 35 38 44 48 51 57 65 62 47 44 49 48 42 39 42 47 48 45 40 33 31 30 22 15 14 14 12 9 1 351 339 327 320 316 319